sat.trackr.live / text

‹ back to catalog

STARLINK-4475

NORAD 53545 · 2022-101U

PAYLOAD ACTIVE UNKNOWN

§ Identity

Operator
Country
US
Launch date
2022-08-19
Launch site
AFETR
Launch vehicle
Mass (kg)
RCS (m²)

Purposes: comms

External: N2YO · Heavens-Above · Gunter

§ Orbital elements

Epoch: 2026-09-20T00:10:40.001088Z

Period
93.85 min
Inclination
53.1592°
Eccentricity
0.0001168
Mean motion
15.34381688 rev/d
Perigee alt
462.0 km
Apogee alt
463.6 km
Semi-major
6,840.9 km
B*
-3.1316e-5
RAAN
255.9730°
Arg perigee
83.8617°
Mean anomaly
276.2519°
Rev number
22,654

§ Raw data

STARLINK-44751 53545U 22101U   26263.00740742 -.00001433  00000+0 -31316-4 0  99912 53545  53.1592 255.9730 0001168  83.8617 276.2519 15.34381688226547

JSON: /api/v1/satellites/53545 · /tle

For live sub-satellite position, see the globe view (requires WebGL).

§ Visibility from observer

Set your observer location to see the next 7 days of passes ≥ 10°. The values pass through the URL so the page stays shareable.

No JS? Fill the form by hand. The geolocation button needs JavaScript.